Simultaneous Nadir Overpasses (SNOs) Predictions

Prediction of SNOs between GOES-16 and NOAA-19 Satellite Orbit:

Table of predicted SNOs for the next 14.0 days since TLE Epoch: 2/10/2024
Index Date Time (GOES-16) GOES-16 Lat,Lon NOAA-19 Lat,Lon Distance(km) Time Diff (sec)
1 02/10/2024 14:13:12 0.02, -75.22 0.48, -77.11 216.72 80
2 02/11/2024 13:58:22 0.02, -75.22 -0.24, -74.15 122.36 80
3 02/12/2024 13:46:10 0.02, -75.23 -0.91, -71.19 461.58 80
4 02/14/2024 02:20:44 -0.03, -75.22 -0.88, -78.83 412.61 80
5 02/15/2024 02:08:32 -0.03, -75.23 -0.20, -75.87 73.11 80
6 02/16/2024 01:53:42 -0.02, -75.25 0.54, -72.92 266.59 80
7 02/18/2024 14:16:05 0.03, -75.30 0.54, -77.61 262.97 80
8 02/19/2024 14:01:14 0.02, -75.32 -0.15, -74.64 77.19 80
9 02/20/2024 13:49:03 0.02, -75.33 -0.84, -71.68 417.55 80
10 02/22/2024 02:23:35 -0.03, -75.34 -0.96, -79.32 454.78 80
11 02/23/2024 02:11:23 -0.03, -75.36 -0.27, -76.36 113.87 80
